Home   Weather   Trenton   Past weeks

Flag for USA Past Weather in Trenton, New Jersey, USA — Yesterday and Last 2 Weeks

Now
55 °F

Light rain. Fog.


Feels Like: 51 °F
Forecast: 53 / 65 °F
Wind: 14 mph from Northeast

Location: Mercer County Airport

Current Time: Apr 26, 2017 at 3:59:43 am

Latest Report: Apr 26, 2017 at 3:08 am


Visibility: 3 mi

Pressure: 29.72 "Hg

Humidity: 100%

Dew Point: 55 °F

Location of TrentonLocation

Past Weather in Trenton — Graph

°F

Trenton Temperature Yesterday

Maximum temperature yesterday: 56 °F (at 1:28 pm)
Minimum temperature yesterday: 51 °F (at 12:53 am)
Average temperature yesterday: 54 °F

High & Low Weather Summary for the Past Weeks

 TemperatureHumidityPressure
High86 °F (Apr 16, 2:53 pm)100% (Apr 16, 3:14 am)30.50 "Hg (Apr 16, 3:14 am)
Low42 °F (Apr 15, 5:53 am)22% (Apr 17, 5:53 pm)29.72 "Hg (Apr 26, 3:08 am)
Average58 °F69%30.09 "Hg
* Reported Apr 11 3:53 am — Apr 26 3:08 am, Trenton, Weather by CustomWeather, © 2017

Note: Actual official high and low records may vary slightly from our data, if they occured in-between our weather recording intervals... More about our weather records

Advertising

Trenton Weather History for the Previous 24 Hours

Scroll right to see more
 ConditionsComfort  
Time TempWeatherWind HumidityBarometerVisibility
3:08 am
Wed, Apr 26
55 °FLight rain. Fog.14 mph100%29.72 "Hg3 mi
2:34 am54 °FFog.14 mph100%29.73 "Hg2 mi
1:53 am54 °FLight rain. Fog.15 mph100%29.72 "Hg3 mi
12:00 am54 °FLight rain. Fog.16 mph97%29.77 "Hg3 mi
11:36 pm
Tue, Apr 25
54 °FLight rain. Fog.18 mph97%29.78 "Hg2 mi
11:02 pm54 °FLight rain. Fog.15 mph97%29.81 "Hg4 mi
10:53 pm54 °FLow clouds.17 mph97%29.79 "Hg7 mi
9:53 pm54 °FRain. Fog.13 mph97%29.80 "Hg6 mi
8:53 pm55 °FLight rain. Low clouds.17 mph96%29.80 "Hg10 mi
7:53 pm55 °FLight rain. Mostly cloudy.16 mph96%29.81 "Hg7 mi
7:37 pm55 °FLight rain. Fog.14 mph96%29.83 "Hg3 mi
6:53 pm55 °FLight rain. Fog.16 mph96%29.83 "Hg3 mi
6:35 pm56 °FRain. Fog.15 mph97%29.85 "Hg2 mi
6:03 pm56 °FRain. Fog.17 mph97%29.85 "Hg1 mi
5:53 pm56 °FLight rain. Fog.17 mph97%29.84 "Hg2 mi
5:41 pm56 °FRain. Fog.18 mph97%29.86 "Hg2 mi
5:24 pm56 °FRain. Fog.18 mph97%29.84 "Hg2 mi
5:11 pm56 °FLight rain. Fog.17 mph97%29.84 "Hg3 mi
5:01 pm56 °FHeavy rain. Fog.16 mph97%29.85 "Hg1 mi
4:26 pm56 °FRain. Fog.16 mph97%29.87 "Hg2 mi
4:07 pm56 °FLight rain. Fog.18 mph97%29.87 "Hg3 mi
3:53 pm56 °FHeavy rain. Fog.14 mph97%29.87 "Hg2 mi
3:01 pm56 °FLight rain. Fog.17 mph97%29.91 "Hg5 mi
2:34 pm56 °FLight rain. Fog.16 mph97%29.92 "Hg2 mi
2:17 pm56 °FLight rain. Fog.17 mph97%29.93 "Hg3 mi
1:53 pm56 °FLight rain. Fog.20 mph97%29.92 "Hg2 mi
1:28 pm56 °FFog.21 mph93%29.95 "Hg6 mi
12:53 pm55 °FFog.18 mph96%29.95 "Hg4 mi
12:42 pm55 °FFog.17 mph96%29.98 "Hg3 mi
12:32 pm55 °FFog.14 mph96%29.98 "Hg1 mi
12:05 pm54 °FFog.18 mph97%30.00 "Hg2 mi
11:53 am54 °FFog.16 mph97%29.98 "Hg5 mi
10:53 am54 °FFog.21 mph93%29.99 "Hg5 mi
10:09 am53 °FFog.18 mph96%30.02 "Hg4 mi
9:53 am53 °FLight rain. Fog.17 mph96%30.01 "Hg2 mi
8:53 am53 °FFog.20 mph93%30.01 "Hg6 mi
8:25 am52 °FFog.18 mph97%30.03 "Hg5 mi
8:06 am52 °FFog.16 mph93%30.03 "Hg2 mi
6:53 am51 °FLow clouds.17 mph92%30.00 "Hg10 mi
5:53 am51 °FLight rain. Low clouds.14 mph92%29.99 "Hg7 mi
4:53 am52 °FLow clouds.18 mph93%29.99 "Hg10 mi
3:53 am51 °FLow clouds.14 mph92%30.00 "Hg9 mi
Weather by CustomWeather, © 2017

See weather overviewHow to use our weather pages